カタログに戻る

STARLINK-34605

運用中通信VLEO
NORAD 64677·PAYLOAD·🇺🇸 United States

打ち上げ Jun 28, 2025 から Cape Canaveral Space Force Station

Loading…

次のパス (今後24時間)

TLE

最新Source: CelesTrak SupGP

元期: Sep 14, 2026, 22:52 UTC

1 64677C 25139P   26257.95326389  .00037205  00000+0  10994-2 0  2575
2 64677  53.1584 315.8569 0001222  86.8440 194.5420 15.34366980    13

AllMySatでSTARLINK-34605をリアルタイム追跡

Download on the App Store